TimeHST,TemperatureF,Dew PointF,Humidity,Sea Level PressureIn,VisibilityMPH,Wind Direction,Wind SpeedMPH,Gust SpeedMPH,PrecipitationIn,Events,Conditions,WindDirDegrees,DateUTC
12:53 AM,68.0,62.1,81,29.99,6.0,Calm,Calm,-,0.01,Rain,Light Rain,0,2013-11-12 10:53:00
1:53 AM,66.0,62.1,87,29.98,10.0,SW,4.6,-,0.00,,Overcast,230,2013-11-12 11:53:00
2:53 AM,64.0,60.1,87,29.98,10.0,West,8.1,-,N/A,,Mostly Cloudy,280,2013-11-12 12:53:00
3:53 AM,66.0,60.1,81,29.98,10.0,NNW,6.9,-,N/A,,Mostly Cloudy,330,2013-11-12 13:53:00
4:53 AM,66.0,60.1,81,29.98,10.0,NW,8.1,-,N/A,,Clear,320,2013-11-12 14:53:00
5:53 AM,64.0,60.1,87,29.99,10.0,WNW,5.8,-,N/A,,Clear,300,2013-11-12 15:53:00
6:53 AM,63.0,59.0,87,30.01,10.0,WSW,4.6,-,N/A,,Clear,250,2013-11-12 16:53:00
7:51 AM,64.4,60.8,88,30.03,10.0,West,4.6,-,0.01,,Partly Cloudy,260,2013-11-12 17:51:00
7:53 AM,64.9,61.0,87,30.02,10.0,West,5.8,-,0.01,,Partly Cloudy,260,2013-11-12 17:53:00
8:53 AM,72.0,62.1,71,30.05,10.0,NW,3.5,-,N/A,,Partly Cloudy,320,2013-11-12 18:53:00
9:53 AM,75.0,62.1,64,30.05,10.0,NNE,10.4,-,N/A,,Partly Cloudy,20,2013-11-12 19:53:00
10:53 AM,73.0,62.1,68,30.04,10.0,Calm,Calm,-,0.00,,Partly Cloudy,0,2013-11-12 20:53:00
11:53 AM,72.0,61.0,68,30.02,10.0,North,13.8,19.6,0.00,,Mostly Cloudy,360,2013-11-12 21:53:00
12:53 PM,73.0,61.0,66,29.99,10.0,North,13.8,-,N/A,,Mostly Cloudy,10,2013-11-12 22:53:00
1:53 PM,72.0,63.0,73,29.96,10.0,North,13.8,-,N/A,,Scattered Clouds,360,2013-11-12 23:53:00
2:53 PM,73.9,63.0,68,29.95,10.0,NNE,17.3,-,N/A,,Overcast,20,2013-11-13 00:53:00
3:53 PM,71.1,60.1,68,29.96,10.0,North,12.7,-,N/A,,Overcast,350,2013-11-13 01:53:00
4:53 PM,71.1,59.0,66,29.96,10.0,North,12.7,-,N/A,,Mostly Cloudy,350,2013-11-13 02:53:00
5:53 PM,69.1,59.0,70,29.99,10.0,NNW,9.2,-,N/A,,Partly Cloudy,340,2013-11-13 03:53:00
6:53 PM,68.0,59.0,73,30.00,10.0,NW,8.1,-,N/A,,Mostly Cloudy,320,2013-11-13 04:53:00
8:53 PM,68.0,57.0,68,30.03,10.0,NNW,8.1,-,N/A,,Scattered Clouds,340,2013-11-13 06:53:00
9:53 PM,66.9,57.9,73,30.03,10.0,WNW,4.6,-,N/A,,Scattered Clouds,300,2013-11-13 07:53:00
10:53 PM,66.9,59.0,76,30.03,10.0,NW,10.4,-,N/A,,Clear,320,2013-11-13 08:53:00
11:53 PM,66.0,57.9,75,30.01,10.0,NW,9.2,-,N/A,,Partly Cloudy,320,2013-11-13 09:53:00